Rochester, NY

5:28 PM EDT on April 25, 2018 (GMT -0400)
Greater Rochester International

Weather History for KROC - October, 2014

Change the Weather History Date:

Saturday, October 4, 2014

  Actual Average Record
Temperature  
Mean Temperature 54 °F 55 °F  
Max Temperature 67 °F 64 °F 89 °F (1926)
Min Temperature 40 °F 45 °F 29 °F (1974)
Degree Days  
Heating Degree Days 11 11  
Month to date heating degree days 15 41  
Since 1 July heating degree days 164 222  
Cooling Degree Days 0 0  
Month to date cooling degree days 0 0  
Year to date cooling degree days 532 534  
Growing Degree Days 2 (Base 50)    
Moisture  
Dew Point 49 °F    
Average Humidity 69    
Maximum Humidity 93    
Minimum Humidity 44    
Precipitation  
Precipitation 0.19 in 0.09 in 1.03 in (1884)
Month to date precipitation 0.22 0.36  
Year to date precipitation 26.58 26.34  
Snow  
Snow 0.00 in 0.00 in 0.00 in ()
Month to date snowfall 0.0 0.0  
Since 1 July snowfall 0.0 0.0  
Since 1 September snowfall 0.0 0.0  
Snow Depth 0.00 in    
Sea Level Pressure  
Sea Level Pressure 29.58 in    
Wind  
Wind Speed 12 mph (WSW)    
Max Wind Speed 28 mph    
Max Gust Speed 36 mph    
Visibility 9 miles    
Events Rain    
T = Trace of Precipitation, MM = Missing Value Source: NWS Daily Summary

Daily Weather History Graph

Daily Weather History Graph

Search for Another Location

Airport or City:

Astronomy

Oct. 04, 2014 Rise Set
Actual Time 7:11 AM EDT 6:46 PM EDT
Civil Twilight 6:43 AM EDT 7:14 PM EDT
Nautical Twilight 6:10 AM EDT 7:47 PM EDT
Astronomical Twilight 5:36 AM EDT 8:20 PM EDT
Moon 4:27 PM EDT (10/4) 2:30 AM EDT (10/4)
Length of Visible Light 12h 31m
Length of Day
11h 35m
Waxing Gibbous, 81% of the Moon is Illuminated
Oct 4
Waxing Gibbous
Oct 8
Full
Oct 15
Last Quarter
Oct 23
New
Oct 30
First Quarter

Hourly Weather History & Observations

Time (EDT) Temp. Windchill Dew Point Humidity Pressure Visibility Wind Dir Wind Speed Gust Speed Precip Events Conditions
12:54 AM 66.9 °F - 57.9 °F 73% 29.53 in 10.0 mi SSE 10.4 mph - N/A   Overcast
1:54 AM 66.0 °F - 59.0 °F 78% 29.51 in 10.0 mi South 15.0 mph 19.6 mph 0.00 in   Overcast
2:54 AM 63.0 °F - 60.1 °F 90% 29.51 in 2.5 mi West 16.1 mph 25.3 mph 0.05 in Rain Heavy Rain
2:57 AM 63.0 °F - 60.1 °F 90% 29.51 in 2.0 mi WSW 18.4 mph 25.3 mph 0.05 in Rain Heavy Rain
3:03 AM 63.0 °F - 60.1 °F 90% 29.51 in 4.0 mi WSW 13.8 mph 24.2 mph 0.06 in Rain Light Rain
3:10 AM 63.0 °F - 61.0 °F 93% 29.51 in 6.0 mi SW 8.1 mph - 0.07 in Rain Rain
3:54 AM 62.1 °F - 59.0 °F 90% 29.52 in 10.0 mi WSW 9.2 mph - 0.08 in   Overcast
4:06 AM 62.1 °F - 57.9 °F 86% 29.51 in 10.0 mi WSW 11.5 mph - 0.00 in Rain Light Rain
4:17 AM 61.0 °F - 57.9 °F 90% 29.52 in 10.0 mi West 10.4 mph - 0.00 in Rain Light Rain
4:28 AM 60.1 °F - 57.0 °F 90% 29.53 in 10.0 mi WSW 9.2 mph - 0.00 in Rain Light Rain
4:43 AM 60.1 °F - 57.0 °F 90% 29.53 in 10.0 mi WSW 6.9 mph - 0.00 in Rain Light Rain
4:54 AM 59.0 °F - 57.0 °F 93% 29.54 in 10.0 mi WSW 6.9 mph - 0.01 in Rain Light Rain
5:54 AM 59.0 °F - 57.0 °F 93% 29.54 in 7.0 mi SW 4.6 mph - 0.02 in Rain Rain
6:54 AM 57.9 °F - 54.0 °F 87% 29.56 in 10.0 mi West 9.2 mph - 0.02 in   Overcast
7:54 AM 57.0 °F - 54.0 °F 89% 29.57 in 10.0 mi WSW 6.9 mph - 0.00 in   Overcast
8:54 AM 57.9 °F - 53.1 °F 84% 29.57 in 10.0 mi SW 8.1 mph - N/A   Overcast
9:54 AM 57.9 °F - 50.0 °F 75% 29.57 in 10.0 mi WSW 16.1 mph 24.2 mph N/A   Overcast
10:54 AM 55.0 °F - 50.0 °F 83% 29.58 in 10.0 mi West 6.9 mph - 0.01 in   Overcast
11:09 AM 55.0 °F - 48.9 °F 80% 29.58 in 10.0 mi West 12.7 mph 17.3 mph N/A   Overcast
11:26 AM 55.0 °F - 46.9 °F 74% 29.58 in 10.0 mi West 13.8 mph 19.6 mph N/A   Overcast
11:54 AM 55.9 °F - 46.0 °F 69% 29.58 in 10.0 mi West 10.4 mph - N/A   Overcast
12:54 PM 57.9 °F - 39.0 °F 49% 29.57 in 10.0 mi WSW 17.3 mph 28.8 mph N/A   Mostly Cloudy
1:54 PM 59.0 °F - 37.9 °F 46% 29.57 in 10.0 mi West 18.4 mph 25.3 mph N/A   Mostly Cloudy
2:54 PM 55.0 °F - 41.0 °F 59% 29.60 in 10.0 mi West 21.9 mph 28.8 mph N/A   Mostly Cloudy
3:54 PM 53.1 °F - 37.9 °F 57% 29.62 in 10.0 mi West 26.5 mph 36.8 mph N/A   Mostly Cloudy
4:54 PM 52.0 °F - 37.9 °F 59% 29.65 in 10.0 mi West 25.3 mph 35.7 mph N/A   Scattered Clouds
5:54 PM 48.9 °F - 37.0 °F 64% 29.66 in 10.0 mi WSW 12.7 mph - N/A   Mostly Cloudy
6:54 PM 46.9 °F - 37.9 °F 71% 29.66 in 10.0 mi WSW 8.1 mph - N/A   Mostly Cloudy
7:54 PM 44.6 °F 40.7 °F 39.2 °F 81% 29.66 in 10.0 mi West 6.9 mph - N/A   Mostly Cloudy
8:54 PM 45.0 °F 40.1 °F 37.0 °F 74% 29.70 in 10.0 mi West 9.2 mph - N/A   Mostly Cloudy
9:54 PM 45.0 °F 39.7 °F 34.0 °F 65% 29.71 in 10.0 mi West 10.4 mph - N/A   Mostly Cloudy
10:54 PM 42.1 °F 36.6 °F 36.0 °F 79% 29.71 in 10.0 mi WSW 9.2 mph - N/A   Mostly Cloudy
11:54 PM 39.9 °F 35.1 °F 36.0 °F 86% 29.72 in 10.0 mi WSW 6.9 mph - N/A   Mostly Cloudy